Back to catalog

STARLINK-31088

AliveCommunicationsVLEO
NORAD 58604·PAYLOAD·🇺🇸 United States

Launched Dec 19, 2023 from Cape Canaveral Space Force Station

Loading…

Next Passes (next 24 hours)

TLE

FreshSource: CelesTrak SupGP

Epoch: Sep 14, 2026, 20:55 UTC

1 58604C 23200R   26257.87201389 -.00008353  00000+0 -30250-3 0  2570
2 58604  43.0004 180.2993 0001503 263.2094 160.4603 15.27588205    17

Track STARLINK-31088 in real time with AllMySat

Download on the App Store